Naval Air Station North Island

Airport
ICAO code: 
KNZY
Summary
ICAO Region: 
NAM
Territory: 
Location: 
San Diego, California,
Coordinates: 
Aerial View: 
32° 41' 52.657" N, 117° 12' 15.645" W
Airport WX: 
Fog
Metar
Observation
KNZY 020852Z 01004KT 4SM BR OVC005 15/13 A3009 RMK AO2 SLP187 T01500133 58000
Station
San Diego, North Island, Naval Air Station
Date/Time
2021-12-02 08:52:00
Wind direction
10°
Wind speed
04 kts
Lowest cloud amount
overcast
Temperature
15°C
Dew point
13.3°C
Humidity
89%
Weather condition
mist

Description

Naval Air Station North Island, or NAS North Island, is located at the north end of the Coronado peninsula on San Diego Bay in San Diego, California. It is the home port to the aircraft compliment of several aircraft carriers of the United States Navy.

Climatology

Semi-arid or Mediterranean (Köppen climate classification BSh or Csa/Csb). It enjoys mild, sunny weather throughout the year. Since the San Diego area straddles areas of Mediterranean climate (Csa) to the north, and Semi-arid climate (BSh) to the south and east, the climate is often referred to as "Mediterranean" or "arid-mediterranean". Fog is common in May and June.

Runways

Designator Length Width Surface Rops
11/29 2286 91 PEM Yes/Yes
18/36 2438 61 PEM Yes/Yes
Airport map: 
Aerial View: 

SKYbrary Partners:

Safety knowledge contributed by: